This demonstration page uses our WeatherBlox Daily Observations layout. Learn more.

Left ArrowRight Arrow

Hourly Observations for November 24, 2019

Temp ( °F °C ) Dew Point ( °F °C ) Humidity (%) Winds ( mph kmh ) Pressure ( in mb ) Visibility ( mi km ) Precip ( " mm )
12:53 am 00:53 Clear 40 4.4 29 -1.7 65 65 Calm 30.17 1022 10 16 0.00 0.00
1:53 am 01:53 Clear 38 3.3 28 -2.2 68 68 Calm 30.16 1021 10 16 0.00 0.00
2:53 am 02:53 Clear 37 2.8 27 -2.8 67 67 Calm 30.16 1022 10 16 0.00 0.00
3:53 am 03:53 Clear 36 2.2 28 -2.2 73 73 SW 3 6 30.17 1022 10 16 0.00 0.00
4:53 am 04:53 Clear 33 0.6 26 -3.3 75 75 Calm 30.18 1022 10 16 0.00 0.00
5:53 am 05:53 Clear 32 0 25 -3.9 75 75 Calm 30.19 1022 10 16 0.00 0.00
6:53 am 06:53 Clear 33 0.6 26 -3.3 75 75 Calm 30.20 1023 10 16 0.00 0.00
7:53 am 07:53 Sunny 35 1.7 27 -2.8 72 72 Calm 30.21 1023 10 16 0.00 0.00
8:53 am 08:53 Sunny 44 6.7 29 -1.7 55 55 Calm 30.22 1023 7 11 0.00 0.00
9:53 am 09:53 Sunny 49 9.4 32 0 52 52 Calm 30.20 1023 8 13 0.00 0.00
10:53 am 10:53 Sunny 56 13.3 32 0 40 40 SSE 5 7 30.19 1022 10 16 0.00 0.00
11:53 am 11:53 Sunny 62 16.7 30 -1.1 30 30 SSE 3 6 30.16 1021 10 16 0.00 0.00
12:53 pm 12:53 Sunny 65 18.3 30 -1.1 27 27 SSW 3 6 30.12 1020 10 16 0.00 0.00
1:53 pm 13:53 Sunny 66 18.9 30 -1.1 26 26 S 5 7 30.09 1019 10 16 0.00 0.00
2:53 pm 14:53 Sunny 69 20.6 31 -0.6 24 24 Calm 30.07 1018 10 16 0.00 0.00
3:53 pm 15:53 Sunny 67 19.4 31 -0.6 26 26 WSW 3 6 30.07 1018 10 16 0.00 0.00
4:53 pm 16:53 Clear 62 16.7 33 0.6 34 34 Calm 30.06 1018 10 16 0.00 0.00
5:53 pm 17:53 Clear 55 12.8 33 0.6 44 44 Calm 30.06 1018 10 16 0.00 0.00
6:53 pm 18:53 Clear 52 11.1 31 -0.6 45 45 Calm 30.06 1018 10 16 0.00 0.00
7:53 pm 19:53 Clear 47 8.3 31 -0.6 54 54 NW 3 6 30.08 1019 10 16 0.00 0.00
8:53 pm 20:53 Clear 46 7.8 31 -0.6 56 56 W 3 6 30.08 1019 10 16 0.00 0.00
9:53 pm 21:53 Clear 45 7.2 32 0 61 61 Calm 30.06 1018 9 14 0.00 0.00
10:53 pm 22:53 Clear 42 5.6 32 0 68 68 WNW 3 6 30.06 1018 9 14 0.00 0.00
11:53 pm 23:53 Clear 41 5 30 -1.1 65 65 Calm 30.06 1018 10 16 0.00 0.00

Powered by AerisWeather